Location: Coatesville
(39.9830°N, 75.8240°W)
Time: 04:54:55
(UTC-04:00)

N. Korean satellite - Visible Passes

Search period start: 22 March 2019 00:00
Search period end: 01 April 2019 00:00
Orbit: 456 x 510 km, 97.2° (Epoch: 21 March)

Date Brightness Start Highest point End Pass type
(mag) Time Alt. Az. Time Alt. Az. Time Alt. Az.
23 Mar 9.4 06:34:23 10° NE 06:37:20 24° E 06:40:19 10° SSE visible
24 Mar 10.2 06:10:55 10° ENE 06:12:22 12° E 06:13:51 10° ESE visible
28 Mar 10.5 06:05:47 10° E 06:06:26 10° E 06:07:05 10° ESE visible
